,,PA_Meas_PMT16A,,PR_Meas_QMR101_102,,RH_Meas_QMH101,,SR_Meas_QMS101,,TA_Meas_QMH101,,GenWind,,GenWind,
time,status,PA,status,PR,status,RH,status,SR,status,TA,status,DirAvg,status,SpdAvg,
2014-07-23, 06:59:04,VALID,918.469,VALID,0,VALID,97.1147,VALID,42.9765,VALID,17.9886,VALID,130,VALID,0.890234,
2014-07-23, 07:00:04,VALID,918.505,VALID,0,VALID,97.0994,VALID,47.489,VALID,18.0275,VALID,129,VALID,0.716406,
2014-07-23, 07:01:04,VALID,918.549,VALID,0,VALID,97.0842,VALID,51.6792,VALID,18.0874,VALID,129,VALID,0.673437,
2014-07-23, 07:02:04,VALID,918.562,VALID,0,VALID,97.0842,VALID,54.6875,VALID,18.125,VALID,130,VALID,0.549609,
2014-07-23, 07:03:04,VALID,918.602,VALID,0,VALID,97.0232,VALID,56.1917,VALID,18.1654,VALID,130,VALID,0.392578,
2014-07-23, 07:04:04,VALID,918.596,VALID,0,VALID,97.0003,VALID,57.9108,VALID,18.1849,VALID,129,VALID,0.230078,
2014-07-23, 07:05:04,VALID,918.59,VALID,0,VALID,96.9775,VALID,60.5968,VALID,18.2225,VALID,129,VALID,0.453906,
2014-07-23, 07:06:04,VALID,918.619,VALID,0,VALID,96.9317,VALID,63.6052,VALID,18.2823,VALID,129,VALID,0.502734,
2014-07-23, 07:07:04,VALID,918.629,VALID,0,VALID,96.886,VALID,66.0763,VALID,18.3213,VALID,129,VALID,0.522656,
2014-07-23, 07:08:04,VALID,918.637,VALID,0,VALID,96.8174,VALID,68.8698,VALID,18.3798,VALID,129,VALID,0.215234,
2014-07-23, 07:09:04,VALID,918.643,VALID,0,VALID,96.7564,VALID,72.7377,VALID,18.4174,VALID,129,VALID,0,
2014-07-23, 07:10:04,VALID,918.629,VALID,0,VALID,96.7107,VALID,77.3576,VALID,18.4578,VALID,130,VALID,0.2625,
2014-07-23, 07:11:04,VALID,918.616,VALID,0,VALID,96.5963,VALID,81.4404,VALID,18.4188,VALID,130,VALID,0.579297,
2014-07-23, 07:12:04,VALID,918.599,VALID,0,VALID,96.4591,VALID,84.6636,VALID,18.4383,VALID,130,VALID,0.801562,
2014-07-23, 07:13:04,VALID,918.616,VALID,0,VALID,96.2609,VALID,87.5645,VALID,18.4174,VALID,130,VALID,0.919531,
2014-07-23, 07:14:04,VALID,918.623,VALID,0,VALID,96.1389,VALID,89.8208,VALID,18.3979,VALID,130,VALID,0.772656,
2014-07-23, 07:15:04,VALID,918.629,VALID,0,VALID,96.0245,VALID,91.5399,VALID,18.4369,VALID,130,VALID,0.63125,
2014-07-23, 07:16:04,VALID,918.649,VALID,0,VALID,95.9026,VALID,94.1184,VALID,18.4968,VALID,129,VALID,0.294922,
2014-07-23, 07:17:04,VALID,918.687,VALID,0,VALID,95.8035,VALID,96.697,VALID,18.5358,VALID,130,VALID,0.0492188,
2014-07-23, 07:18:04,VALID,918.657,VALID,0,VALID,95.7501,VALID,99.3831,VALID,18.5748,VALID,130,VALID,0,
2014-07-23, 07:19:04,VALID,918.676,VALID,0,VALID,95.7349,VALID,102.929,VALID,18.6528,VALID,130,VALID,0.190625,
2014-07-23, 07:20:04,VALID,918.693,VALID,0,VALID,95.59,VALID,105.83,VALID,18.6708,VALID,130,VALID,0.211328,
2014-07-23, 07:21:04,VALID,918.707,VALID,0,VALID,95.4604,VALID,108.408,VALID,18.7098,VALID,130,VALID,0,
2014-07-23, 07:22:04,VALID,918.717,VALID,0,VALID,95.5748,VALID,110.772,VALID,18.8658,VALID,130,VALID,0,
2014-07-23, 07:23:04,VALID,918.747,VALID,0,VALID,95.4985,VALID,113.136,VALID,18.9243,VALID,129,VALID,0,
2014-07-23, 07:24:04,VALID,918.754,VALID,0,VALID,95.4223,VALID,115.177,VALID,19.0023,VALID,129,VALID,0,
2014-07-23, 07:25:04,VALID,918.768,VALID,0,VALID,95.1174,VALID,116.036,VALID,19.0023,VALID,130,VALID,0,
2014-07-23, 07:26:04,VALID,918.814,VALID,0,VALID,94.4084,VALID,122.805,VALID,18.9633,VALID,130,VALID,0.490234,
2014-07-23, 07:27:04,VALID,918.85,VALID,0,VALID,94.0348,VALID,129.896,VALID,18.9633,VALID,130,VALID,0.548047,
2014-07-23, 07:28:04,VALID,918.838,VALID,0,VALID,93.6232,VALID,133.12,VALID,18.9438,VALID,148,VALID,0.929688,
2014-07-23, 07:29:04,VALID,918.899,VALID,0,VALID,93.4021,VALID,133.334,VALID,18.9438,VALID,148,VALID,1.02461,
2014-07-23, 07:30:04,VALID,918.9,VALID,0,VALID,93.4631,VALID,132.797,VALID,18.9633,VALID,148,VALID,0.516797,
2014-07-23, 07:31:04,VALID,918.917,VALID,0,VALID,93.4326,VALID,137.74,VALID,19.0023,VALID,148,VALID,0.685156,
2014-07-23, 07:32:04,VALID,918.927,VALID,0,VALID,93.5012,VALID,146.55,VALID,19.0413,VALID,148,VALID,0.578516,
2014-07-23, 07:33:04,VALID,918.949,VALID,0,VALID,93.4936,VALID,150.095,VALID,19.0983,VALID,148,VALID,0.400781,
2014-07-23, 07:34:04,VALID,918.993,VALID,0,VALID,93.6613,VALID,155.145,VALID,19.1973,VALID,148,VALID,0.384766,
2014-07-23, 07:35:04,VALID,918.985,VALID,0,VALID,93.646,VALID,159.765,VALID,19.2948,VALID,148,VALID,0.353906,
2014-07-23, 07:36:04,VALID,919.005,VALID,0,VALID,93.2496,VALID,164.17,VALID,19.3533,VALID,148,VALID,0.589063,
2014-07-23, 07:37:04,VALID,919.017,VALID,0,VALID,93.059,VALID,164.063,VALID,19.4313,VALID,147,VALID,0.741797,
2014-07-23, 07:38:04,VALID,919.067,VALID,0,VALID,92.8303,VALID,162.988,VALID,19.4883,VALID,147,VALID,0.526953,
2014-07-23, 07:39:04,VALID,919.099,VALID,0,VALID,92.6931,VALID,163.096,VALID,19.5483,VALID,147,VALID,0.745703,
2014-07-23, 07:40:04,VALID,919.129,VALID,0,VALID,92.4644,VALID,161.162,VALID,19.5858,VALID,147,VALID,0.725781,
2014-07-23, 07:41:04,VALID,919.098,VALID,0,VALID,91.8927,VALID,161.699,VALID,19.5663,VALID,147,VALID,1.18242,
2014-07-23, 07:42:04,VALID,919.122,VALID,0,VALID,91.542,VALID,162.344,VALID,19.5273,VALID,148,VALID,1.16406,
2014-07-23, 07:43:04,VALID,919.156,VALID,0,VALID,91.6411,VALID,156.757,VALID,19.5468,VALID,148,VALID,1.02891,
2014-07-23, 07:44:04,VALID,919.166,VALID,0,VALID,91.885,VALID,155.897,VALID,19.6068,VALID,148,VALID,0.485938,
2014-07-23, 07:45:04,VALID,919.189,VALID,0,VALID,92.1519,VALID,149.021,VALID,19.6833,VALID,147,VALID,0.585547,
2014-07-23, 07:46:04,VALID,919.189,VALID,0,VALID,92.0604,VALID,145.69,VALID,19.7628,VALID,147,VALID,0.547266,
2014-07-23, 07:47:04,VALID,919.192,VALID,0,VALID,91.6792,VALID,148.484,VALID,19.8198,VALID,147,VALID,0.698047,
2014-07-23, 07:48:04,VALID,919.186,VALID,0,VALID,91.0007,VALID,148.054,VALID,19.8588,VALID,147,VALID,0.561719,
2014-07-23, 07:49:04,VALID,919.217,VALID,0,VALID,90.833,VALID,157.938,VALID,19.9563,VALID,147,VALID,0.190234,
2014-07-23, 07:50:04,VALID,919.227,VALID,0,VALID,90.6882,VALID,170.294,VALID,20.0343,VALID,147,VALID,0.109375,
2014-07-23, 07:51:04,VALID,919.249,VALID,0,VALID,89.4532,VALID,172.336,VALID,20.0733,VALID,148,VALID,0.589063,
2014-07-23, 07:52:04,VALID,919.24,VALID,0,VALID,88.3554,VALID,167.178,VALID,20.1334,VALID,147,VALID,0.624219,
2014-07-23, 07:53:04,VALID,919.227,VALID,0,VALID,88.2715,VALID,152.566,VALID,20.1903,VALID,147,VALID,0.366406,
2014-07-23, 07:54:04,VALID,919.216,VALID,0,VALID,88.3706,VALID,130.756,VALID,20.2489,VALID,147,VALID,0.216797,
2014-07-23, 07:55:04,VALID,919.176,VALID,0,VALID,88.7747,VALID,123.342,VALID,20.3464,VALID,147,VALID,0.176563,
2014-07-23, 07:56:04,VALID,919.171,VALID,0,VALID,88.3706,VALID,126.351,VALID,20.3854,VALID,147,VALID,0.522266,
2014-07-23, 07:57:04,VALID,919.166,VALID,0,VALID,87.9056,VALID,135.913,VALID,20.3643,VALID,147,VALID,0.527344,
2014-07-23, 07:58:04,VALID,919.149,VALID,0,VALID,87.5321,VALID,135.806,VALID,20.3464,VALID,147,VALID,0.610156,
2014-07-23, 07:59:04,VALID,919.17,VALID,0,VALID,87.2957,VALID,139.673,VALID,20.3074,VALID,147,VALID,0.416406,
2014-07-23, 08:00:04,VALID,919.148,VALID,0,VALID,87.8751,VALID,136.02,VALID,20.3643,VALID,147,VALID,0.308203,
2014-07-23, 08:01:04,VALID,919.152,VALID,0,VALID,88.1114,VALID,149.021,VALID,20.4049,VALID,147,VALID,0.274219,
2014-07-23, 08:02:04,VALID,919.135,VALID,0,VALID,88.6146,VALID,166.534,VALID,20.4634,VALID,147,VALID,0.515625,
2014-07-23, 08:03:04,VALID,919.172,VALID,0,VALID,88.1191,VALID,175.666,VALID,20.5024,VALID,147,VALID,0.430469,
2014-07-23, 08:04:04,VALID,919.189,VALID,0,VALID,87.9895,VALID,172.121,VALID,20.5399,VALID,147,VALID,0.514844,
2014-07-23, 08:05:04,VALID,919.229,VALID,0,VALID,87.3567,VALID,186.84,VALID,20.5399,VALID,147,VALID,0.458203,
2014-07-23, 08:06:04,VALID,919.273,VALID,0,VALID,87.4634,VALID,178.675,VALID,20.639,VALID,147,VALID,0.388672,
2014-07-23, 08:07:04,VALID,919.311,VALID,0,VALID,87.959,VALID,163.74,VALID,20.6764,VALID,147,VALID,0.628906,
2014-07-23, 08:08:04,VALID,919.322,VALID,0,VALID,87.9666,VALID,158.905,VALID,20.6764,VALID,147,VALID,0.69375,
2014-07-23, 08:09:04,VALID,919.309,VALID,0,VALID,87.5473,VALID,165.567,VALID,20.6764,VALID,147,VALID,0.714844,
2014-07-23, 08:10:04,VALID,919.31,VALID,0,VALID,87.6388,VALID,181.576,VALID,20.6764,VALID,147,VALID,0.778516,
2014-07-23, 08:11:04,VALID,919.292,VALID,0,VALID,88.0505,VALID,195.973,VALID,20.6569,VALID,147,VALID,0.574609,
2014-07-23, 08:12:04,VALID,919.29,VALID,0,VALID,88.2944,VALID,205.105,VALID,20.6959,VALID,147,VALID,0.433984,
2014-07-23, 08:13:04,VALID,919.297,VALID,0,VALID,88.1801,VALID,211.337,VALID,20.7755,VALID,147,VALID,0.7375,
2014-07-23, 08:14:04,VALID,919.293,VALID,0,VALID,87.9895,VALID,214.56,VALID,20.7349,VALID,142,VALID,0.829297,
2014-07-23, 08:15:04,VALID,919.305,VALID,0,VALID,87.6083,VALID,209.618,VALID,20.7138,VALID,127,VALID,1.20469,
2014-07-23, 08:16:04,VALID,919.306,VALID,0,VALID,88.7975,VALID,214.775,VALID,20.7544,VALID,117,VALID,0.640234,
2014-07-23, 08:17:04,VALID,919.347,VALID,0,VALID,87.8675,VALID,218.428,VALID,20.7723,VALID,108,VALID,0.865234,
2014-07-23, 08:18:04,VALID,919.379,VALID,0,VALID,87.8522,VALID,223.478,VALID,20.8324,VALID,106,VALID,0.618359,
2014-07-23, 08:19:04,VALID,919.371,VALID,0,VALID,87.9437,VALID,242.602,VALID,20.969,VALID,106,VALID,0.589844,
2014-07-23, 08:20:04,VALID,919.36,VALID,0,VALID,86.4572,VALID,244.966,VALID,21.008,VALID,106,VALID,0.645312,
2014-07-23, 08:21:04,VALID,919.35,VALID,0,VALID,86.5486,VALID,252.916,VALID,21.1055,VALID,106,VALID,0.575391,
2014-07-23, 08:22:04,VALID,919.328,VALID,0,VALID,85.7253,VALID,241.957,VALID,21.2031,VALID,106,VALID,0.373047,
2014-07-23, 08:23:04,VALID,919.318,VALID,0,VALID,86.724,VALID,234.222,VALID,21.3185,VALID,106,VALID,0.48125,
2014-07-23, 08:24:04,VALID,919.367,VALID,0,VALID,86.3352,VALID,243.354,VALID,21.377,VALID,106,VALID,0.297656,
2014-07-23, 08:25:04,VALID,919.376,VALID,0,VALID,86.9451,VALID,243.569,VALID,21.5168,VALID,106,VALID,0.469922,
2014-07-23, 08:26:04,VALID,919.382,VALID,0,VALID,86.8917,VALID,228.527,VALID,21.6518,VALID,106,VALID,0.700781,
2014-07-23, 08:27:04,VALID,919.361,VALID,0,VALID,87.2729,VALID,237.552,VALID,21.7298,VALID,106,VALID,0.762891,
2014-07-23, 08:28:04,VALID,919.377,VALID,0,VALID,87.1128,VALID,241.957,VALID,21.8079,VALID,106,VALID,0.705469,
2014-07-23, 08:29:04,VALID,919.35,VALID,0,VALID,85.0926,VALID,249.371,VALID,21.8876,VALID,106,VALID,0.372266,
2014-07-23, 08:30:04,VALID,919.34,VALID,0,VALID,82.4167,VALID,251.412,VALID,21.9054,VALID,106,VALID,0.985937,
2014-07-23, 08:31:04,VALID,919.388,VALID,0,VALID,83.5069,VALID,247.974,VALID,21.964,VALID,106,VALID,0.789844,
2014-07-23, 08:32:04,VALID,919.435,VALID,0,VALID,83.4764,VALID,260.975,VALID,21.964,VALID,106,VALID,0.949609,
